World > North America > United States > Minnesota > Balaton  

Balaton, MN Hourly Weather Updates

Feedback E-mail the Weather

Quick Clicks

Balaton, MN Weather Maps

°F °C°F °C
Balaton Weather Map
UTC Time: 4/17/2024, 22:47
Your Time:

Balaton, MN Regional Weather

Expires:202404172300;;920773
ASUS43 KMPX 172210
RWRMN 
WEATHER ROUNDUP FOR MINNESOTA
NATIONAL WEATHER SERVICE TWIN CITIES/CHANHASSEN MN
500 PM CDT WED APR 17 2024


NOTE: "FAIR" INDICATES FEW OR NO CLOUDS BELOW 12,000 FEET WITH NO
SIGNIFICANT WEATHER AND/OR OBSTRUCTIONS TO VISIBILITY. N/A MEANS
CURRENT SKY AND/OR WEATHER CONDITIONS ARE NOT AVAILABLE.


MNZ071>073-080-081-089-090-097-098-172300-
   Southwest Minnesota   
  
CITY           SKY/WX    TMP DP  RH WIND       PRES   REMARKS
MONTEVIDEO     MOSUNNY   55  43  62 NW15G21   29.87R                  
GRANITE FALLS  PTSUNNY   56  44  61 W16       29.89R                  
CANBY          PTSUNNY   59  40  49 W17G23    29.88S                  
MARSHALL       PTSUNNY   57  42  57 NW17      29.88R                  
REDWOOD FALLS  PTSUNNY   55  40  56 NW13G24   29.86R                  
OLIVIA         PTSUNNY   52  41  66 NW17G23   29.86R                  
WINDOM         MOSUNNY   55  43  62 W18       29.87R                  
WORTHINGTON    MOSUNNY   57  42  57 NW18      29.90R                  
JACKSON        SUNNY     57  39  51 NW20G25   29.87R                  
TRACY          MOSUNNY   55  45  67 NW16G25   29.87R                  
SLAYTON        MOSUNNY   56  40  53 NW20G30   29.89R                  
$$

SKY/WX - Weather  TMP - Temperature  DP - Dew Point  RH - Humidity
WIND - Wind Direction/Speed PRES - Barometric Pressure VSB - Visibility
WCI - Wind Chill Index E13G22 Wind - East Wind 13 mph/Gusts of 22 mph

Trending Headlines

Trending Entertainment Headlines

Balaton Radar Loop

Use the map search tool if you want to place a location marker on the radar map...

Balaton Quick Facts

National Two Day Weather Forecast


E-mail the Balaton Weather Forecast

Voice your opinion or tell us about page issues...